7 * 24
多渠道服务支持
O3b MPOWER F3 是由 SES 运营的中轨道(MEO)卫星,属于 O3b MPOWER 卫星星座的一部分。该星座旨在通过低延迟、高带宽的卫星连接,为全球各地的电信、企业、政府和内容提供商提供高速互联网服务。F3 卫星于2024年发射,采用可重构载荷技术,能够灵活调整带宽和覆盖范围,以满足不同地区和用户的需求。该星座部署在距地约8,000公里的中轨道,相较于传统地球同步轨道卫星,显著降低了传输延迟,提升了用户体验。
| 数据来源 | 国际轨道数据 |
| 星历时间: | 2026-01-23T05:15:23+0800 轨道信息已过期39天 |
| 半长轴: | 14460.842km |
| 偏心率: | 0.001426 |
| 轨道倾角: | 0.054° |
| 近地点辐角 | 319.146° |
| 升交点赤经 | 12.480° |
| 平近点角 | 28.294° |
| 近地点: | 8062.083km |
| 远地点: | 8103.327km |
| 周期: | 288.436分钟 |
| 每日圈数: | 4.992435 |